Weather in Indiga

Russia / Nenets Autonomous Okrug     67°39′23″N   49°02′10″E
temp.,
°C
wind,
m/s
gust,
m/s
humid.,
%
clouds,
%
prec.,
mm/h
press.,
hPa
HPBL,
m
27 february, sat
sat2700:00−17s6109497 0.1 1006333
03:00−16s6109399 0.3 1007343
06:00−16s6109399 0.1 1006340
09:00−15s6109599 0.4 1007403
12:00−15ssw6993100 0.4 1007404
15:00−14ssw5894100 0.8 1008412
18:00−15ssw489598 0.3 1007260
21:00−15ssw479599 0.7 1007198
28 february, sun
sun2800:00−17sw459692 0.0 100656
03:00−17sw449785 0.0 100748
06:00−15sw359679 0.2 1006102
09:00−13ssw359689 0.6 1007122
12:00−11ssw349693 0.1 100898
15:00−8sw489592 0.3 1008170
18:00−8wsw589798 0.1 1008148
21:00−10sw5109598 0.2 1008181
1 march, mon
mon100:00−10sw61294100 0.0 1006225
03:00−7sw9159298 0.1 1003450
06:00−6sw101789100 0.1 999496
09:00−5sw101690100 0.3 995496
12:00−3sw101694100 0.7 991664
15:00−1wsw81198100 2.7 989465
18:000wnw61098100 1.0 987415
21:000w6997100 1.4 987407
2 march, tue
tue200:00−5wsw599782 0.1 988175
03:00−5wsw6119586 0.3 988235
06:00−8sw5895100 0.1 986131
09:00−8ssw7129350 0.1 986211
12:00−4ssw9149091 0.0 985382
15:00−3s6109495 0.1 986366
18:00−5nne2297100 0.6 98727
21:00−6nnw8149599 1.1 989390
3 march, wed
wed300:00−6nnw10159599 0.9 991685
03:00−7nw91493100 1.8 993569
06:00−11nw6119583 0.1 994195
09:00−11wnw599681 0.1 995146
12:00−9w599485 0.0 995239
15:00−8w589492 0.1 995225
18:00−8w479682 0.1 994140
21:00−8w459789 0.4 994109